Погода в Пестравке

Россия / Самарская область     52°24′13″N   49°57′43″E
темп.,
°C
ветер,
м/с
пор.,
м/с
влажн.,
%
обл.,
%
осадки,
мм/ч
давл.,
гПа
погр.,
м
3 марта, ср
ср301:000з4898100 0.8 1003365
04:00−1сз3597100 0.9 1003154
07:00−3сз3596100 0.2 1002114
10:00−3сз489691 0.2 1004252
13:00−3сз599348 0.0 1004503
16:00−3сз698572 0.1 1006805
19:00−7сз5109088 0.0 1007233
22:00−8зсз5129066 0.0 1009289
4 марта, чт
чт401:00−11зсз47940 0.0 1009101
04:00−12зюз47940 0.0 1010109
07:00−12юз510950 0.0 1009174
10:00−8юз7139439 0.0 1009373
13:00−4юз91392100 0.1 1006775
16:00−1зюз101694100 0.3 1004998
19:00+1зюз91691100 0.4 1004943
22:00+1зюз91590100 0.4 1005943
5 марта, пт
пт501:000зюз81590100 0.1 1004760
04:00−1юз71589100 0.1 1003495
07:00−1юз81596100 0.4 1003600
10:000юз81599100 2.3 1002760
13:00+2зюз916100100 0.8 1001668
16:00+1зюз714100100 0.9 1003615
19:00−3сз51093100 0.1 1007335
22:00−9ссз459476 0.1 101183
6 марта, сб
сб601:00−11ссв3389100 0.0 101344
04:00−13всв3386100 0.0 101436
07:00−12в3686100 0.0 1014137
10:00−10в4688100 0.1 1012225
13:00−8св4595100 0.8 1010244
16:00−7с4695100 1.4 1009248
19:00−12ссз239274 0.1 101024
22:00−13зсз348649 0.1 101242
7 марта, вс
вс701:00−13зсз5109423 0.0 1012178
04:00−15сз479111 0.0 1013127
07:00−17зсз44920 0.0 101466
10:00−15зсз37936 0.0 1016206
13:00−12зюз35900 0.0 1016264
16:00−11ююз48910 0.0 1015336
19:00−12ююз5129366 0.0 1013271
22:00−9ююз7159083 0.0 1011488